This is the latest recevied weather packets stored in our database for station/object N3SBK. If no packets are shown the sender has not sent any weather packets the latest 10 day(s).
| Time | Temp. | Humidity | Pressure | Rain* | Wind** | Luminosity | Snow |
|---|---|---|---|---|---|---|---|
| 1787517773 | 23.33° C | 53% | 1004.6 hPa | 0 mm | - | 350 W/m² | - |
| 1787517469 | 23.33° C | 55% | 1004.6 hPa | 0 mm | - | 365 W/m² | - |
| 1787517165 | 23.33° C | 53% | 1004.7 hPa | 0 mm | - | 379 W/m² | - |
| 1787516864 | 23.33° C | 53% | 1004.8 hPa | 0 mm | - | 391 W/m² | - |
| 1787516559 | 23.33° C | 52% | 1004.7 hPa | 0 mm | - | 414 W/m² | - |
| 1787516259 | 22.78° C | 54% | 1004.7 hPa | 0 mm | - | 414 W/m² | - |
| 1787515954 | 22.78° C | 56% | 1004.8 hPa | 0 mm | - | 431 W/m² | - |
| 1787515650 | 21.67° C | 59% | 1005 hPa | 0 mm | - | 465 W/m² | - |
| 1787515346 | 21.67° C | 60% | 1004.7 hPa | 0 mm | - | 122 W/m² | - |
| 1787515046 | 21.67° C | 60% | 1004.8 hPa | 0 mm | - | 139 W/m² | - |
| 1787514744 | 22.22° C | 60% | 1004.8 hPa | 0 mm | - | 123 W/m² | - |
| 1787514439 | 22.78° C | 58% | 1004.6 hPa | 0 mm | - | 116 W/m² | - |
| 1787514139 | 23.33° C | 57% | 1004.6 hPa | 0 mm | - | 563 W/m² | - |
| 1787513834 | 22.78° C | 55% | 1004.5 hPa | 0 mm | - | 588 W/m² | - |
| 1787513529 | 22.22° C | 58% | 1004.6 hPa | 0 mm | - | 206 W/m² | - |
| 1787513225 | 22.78° C | 59% | 1004.6 hPa | 0 mm | - | 229 W/m² | - |
| 1787512921 | 23.33° C | 55% | 1004.5 hPa | 0 mm | - | 138 W/m² | - |
| 1787512617 | 23.89° C | 56% | 1004.6 hPa | 0 mm | - | 412 W/m² | - |
| 1787512313 | 23.33° C | 58% | 1004.6 hPa | 0 mm | - | 584 W/m² | - |
| 1787512007 | 22.78° C | 57% | 1004.6 hPa | 0 mm | - | 580 W/m² | - |
| 1787511704 | 22.78° C | 57% | 1004.7 hPa | 0 mm | - | 646 W/m² | - |
| 1787511402 | 23.33° C | 59% | 1004.6 hPa | 0 mm | - | 660 W/m² | - |
| 1787511096 | 22.78° C | 57% | 1004.8 hPa | 0 mm | - | 597 W/m² | - |
| 1787510796 | 22.22° C | 57% | 1004.7 hPa | 0 mm | - | 647 W/m² | - |
| 1787510492 | 22.78° C | 60% | 1004.8 hPa | 0 mm | - | 159 W/m² | - |
* Rain latest hour (hover to see other rain measurements)
** Current wind speed in m/s (hover to see current wind gust speed)